Location: Unspecified
(42.9300°N, 71.1866°W)
Time: 18:22:59
(UTC-04:00)

Genesis I - Visible Passes

Search period start: 27 March 2017 00:00
Search period end: 06 April 2017 00:00
Orbit: 510 x 521 km, 64.5° (Epoch: 26 March)

Date Brightness Start Highest point End Pass type
(mag) Time Alt. Az. Time Alt. Az. Time Alt. Az.
27 Mar 5.5 04:06:59 18° N 04:06:59 18° N 04:08:35 10° N visible
28 Mar 5.7 03:51:40 16° N 03:51:40 16° N 03:52:52 10° N visible
29 Mar 5.9 03:36:18 14° N 03:36:18 14° N 03:37:09 10° N visible
30 Mar 6.2 03:20:54 12° N 03:20:54 12° N 03:21:26 10° N visible
31 Mar 6.3 03:05:29 11° N 03:05:29 11° N 03:05:42 10° N visible
